Home   Weather   Svolvær   Past weeks
Flag for Norway

Past Weather in Svolvær, Norway — Yesterday and Last 2 Weeks

Now
50 °F

Partly sunny.


Feels Like: 46 °F
Forecast: 50 / 47 °F
Wind: 12 mph from Southwest

Location: Svolvaer / Helle

Current Time: Jun 25, 2019 at 10:07:26 am

Latest Report: Jun 25, 2019 at 9:20 am


Visibility: N/A

Pressure: 30.27 "Hg

Humidity: 82%

Dew Point: 45 °F

Location of SvolværLocation

Past Weather in Svolvær — Graph

°F

Svolvær Temperature Yesterday

Maximum temperature yesterday: 54 °F (at 1:20 pm)
Minimum temperature yesterday: 48 °F (at 5:50 pm)
Average temperature yesterday: 50 °F

High & Low Weather Summary for the Past Weeks

 TemperatureHumidityPressure
High66 °F (Jun 13, 2:20 pm)100% (Jun 21, 5:20 pm)30.48 "Hg (Jun 21, 5:20 pm)
Low41 °F (Jun 11, 4:20 am)30% (Jun 13, 6:50 pm)29.59 "Hg (Jun 21, 6:20 am)
Average53 °F70%30.02 "Hg
* Reported Jun 10 12:20 pm — Jun 25 8:50 am, Svolvær. Weather by CustomWeather, © 2019

Note: Actual official high and low records may vary slightly from our data, if they occured in-between our weather recording intervals... More about our weather records

Advertising

Svolvær Weather History for the Previous 24 Hours

Scroll right to see more
 ConditionsComfort  
Time TempWeatherWind HumidityBarometerVisibility
8:50 am
Tue, Jun 25
50 °FPartly sunny.13 mph82%30.27 "HgN/A
8:20 am50 °FScattered showers. Broken clouds.13 mph88%30.30 "HgN/A
7:50 am50 °FScattered showers. Broken clouds.12 mph88%30.30 "HgN/A
7:20 am50 °FScattered showers. Broken clouds.12 mph88%30.30 "HgN/A
6:50 am48 °FScattered showers. Broken clouds.9 mph94%30.30 "HgN/A
6:20 am48 °FScattered showers. Broken clouds.8 mph94%30.30 "HgN/A
10:20 pm
Mon, Jun 24
48 °FScattered showers. Scattered clouds.9 mph87%30.33 "HgN/A
9:50 pm48 °FScattered clouds.8 mph87%30.33 "HgN/A
9:20 pm48 °FScattered clouds.7 mph87%30.33 "HgN/A
8:50 pm48 °FLight rain. Scattered clouds.7 mph87%30.33 "HgN/A
8:20 pm48 °FLight rain. Scattered clouds.7 mph87%30.33 "HgN/A
7:50 pm48 °FLight rain. Partly sunny.7 mph87%30.33 "HgN/A
6:50 pm50 °FSprinkles. Partly sunny.12 mph82%30.33 "HgN/A
6:20 pm50 °FSprinkles. Partly sunny.10 mph82%30.33 "HgN/A
5:50 pm48 °FSprinkles. Partly sunny.12 mph94%30.33 "HgN/A
4:50 pm50 °FScattered showers. Partly sunny.12 mph82%30.33 "HgN/A
4:20 pm50 °FScattered showers. Broken clouds.15 mph82%30.33 "HgN/A
3:50 pm50 °FPartly sunny.16 mph82%30.33 "HgN/A
2:50 pm50 °FScattered showers. Broken clouds.17 mph82%30.30 "HgN/A
2:20 pm50 °FScattered showers. Broken clouds.18 mph82%30.30 "HgN/A
1:50 pm52 °FScattered showers. Broken clouds.20 mph77%30.30 "HgN/A
1:20 pm54 °FScattered showers. Broken clouds.14 mph72%30.30 "HgN/A
12:50 pm52 °FScattered showers. Broken clouds.16 mph77%30.30 "HgN/A
12:20 pm50 °FScattered showers. Broken clouds.17 mph88%30.27 "HgN/A
11:50 am50 °FScattered showers. Broken clouds.16 mph88%30.27 "HgN/A
11:20 am50 °FScattered showers. Broken clouds.16 mph82%30.27 "HgN/A
10:50 am52 °FScattered showers. Broken clouds.15 mph77%30.27 "HgN/A
10:20 am50 °FScattered showers. Broken clouds.13 mph82%30.27 "HgN/A
Weather by CustomWeather, © 2019

See weather overview